| time (UTC) | temp C | wind direction | speed KPH | gust KPH | rain 1hr cm | rain 24hr cm | rain mn cm | humidity % | barometer mb |
| 20260505101701 | 13 | 252 | 1.6 | 6.4 | 0.00 | 0.00 | 0.00 | 78 | 1011.2 |
| 20260505101202 | 13 | 239 | 1.6 | 6.4 | 0.00 | 0.00 | 0.00 | 78 | 1011.2 |
| 20260505100701 | 13 | 205 | 1.6 | 8.0 | 0.00 | 0.00 | 0.00 | 78 | 1011.1 |
| 20260505100203 | 13 | 229 | 3.2 | 11.3 | 0.00 | 0.00 | 0.00 | 78 | 1011.1 |
| 20260505095703 | 13 | 235 | 1.6 | 11.3 | 0.00 | 0.00 | 0.00 | 78 | 1011.1 |
| 20260505095203 | 13 | 264 | 1.6 | 6.4 | 0.00 | 0.00 | 0.00 | 78 | 1011.0 |
| 20260505094200 | 13 | 316 | 1.6 | 11.3 | 0.00 | 0.00 | 0.00 | 78 | 1011.1 |
| 20260505093659 | 13 | 28 | 1.6 | 9.7 | 0.00 | 0.00 | 0.00 | 78 | 1011.0 |
| 20260505093158 | 13 | 134 | 1.6 | 6.4 | 0.00 | 0.00 | 0.00 | 78 | 1011.0 |
| 20260505092657 | 13 | 170 | 1.6 | 6.4 | 0.00 | 0.00 | 0.00 | 78 | 1011.0 |
| 20260505091658 | 13 | 225 | 1.6 | 8.0 | 0.00 | 0.00 | 0.00 | 78 | 1010.9 |
| 20260505090655 | 13 | 186 | 3.2 | 8.0 | 0.00 | 0.00 | 0.00 | 78 | 1011.0 |
| 20260505085657 | 13 | 345 | 1.6 | 6.4 | 0.00 | 0.00 | 0.00 | 77 | 1010.9 |
| 20260505085154 | 13 | 185 | 1.6 | 6.4 | 0.00 | 0.00 | 0.00 | 77 | 1010.9 |
| 20260505084151 | 13 | 345 | 1.6 | 8.0 | 0.00 | 0.00 | 0.00 | 77 | 1010.9 |
| 20260505083654 | 13 | 173 | 1.6 | 9.7 | 0.00 | 0.00 | 0.00 | 76 | 1010.9 |
| 20260505083152 | 13 | 345 | 3.2 | 9.7 | 0.00 | 0.00 | 0.00 | 76 | 1010.9 |
| 20260505082656 | 13 | 173 | 1.6 | 6.4 | 0.00 | 0.00 | 0.00 | 76 | 1010.9 |
| 20260505081652 | 13 | 194 | 3.2 | 6.4 | 0.00 | 0.00 | 0.00 | 75 | 1010.9 |
| 20260505081143 | 14 | 165 | 1.6 | 6.4 | 0.00 | 0.00 | 0.00 | 75 | 1010.8 |
| 20260505080637 | 14 | 223 | 1.6 | 8.0 | 0.00 | 0.00 | 0.00 | 75 | 1010.8 |
| 20260505080124 | 14 | 139 | 3.2 | 8.0 | 0.00 | 0.00 | 0.00 | 75 | 1010.8 |
| 20260505075617 | 14 | 248 | 1.6 | 9.7 | 0.00 | 0.00 | 0.00 | 75 | 1010.7 |
| 20260505075113 | 14 | 181 | 1.6 | 8.0 | 0.00 | 0.00 | 0.00 | 76 | 1010.7 |
| 20260505074615 | 13 | 206 | 1.6 | 12.9 | 0.00 | 0.00 | 0.00 | 76 | 1010.7 |
| 20260505074115 | 13 | 240 | 1.6 | 12.9 | 0.00 | 0.00 | 0.00 | 76 | 1010.6 |
| 20260505073611 | 14 | 125 | 0.0 | 3.2 | 0.00 | 0.00 | 0.00 | 76 | 1010.6 |
| 20260505072611 | 14 | 133 | 0.0 | 3.2 | 0.00 | 0.00 | 0.00 | 75 | 1010.6 |
| 20260505072113 | 14 | 133 | 1.6 | 4.8 | 0.00 | 0.00 | 0.00 | 75 | 1010.6 |
| 20260505071612 | 14 | 158 | 1.6 | 8.0 | 0.00 | 0.00 | 0.00 | 75 | 1010.6 |
| 20260505071114 | 14 | 213 | 1.6 | 8.0 | 0.00 | 0.00 | 0.00 | 75 | 1010.6 |
| 20260505070612 | 14 | 174 | 1.6 | 8.0 | 0.00 | 0.00 | 0.00 | 76 | 1010.7 |
| 20260505070112 | 14 | 256 | 0.0 | 3.2 | 0.00 | 0.00 | 0.00 | 75 | 1010.6 |
| 20260505064612 | 15 | 148 | 1.6 | 3.2 | 0.00 | 0.00 | 0.00 | 74 | 1010.6 |
| 20260505064108 | 15 | 147 | 1.6 | 3.2 | 0.00 | 0.00 | 0.00 | 74 | 1010.7 |
| 20260505063607 | 15 | 147 | 1.6 | 3.2 | 0.00 | 0.00 | 0.00 | 74 | 1010.7 |
| 20260505063054 | 15 | 147 | 1.6 | 3.2 | 0.00 | 0.00 | 0.00 | 73 | 1010.8 |
| 20260505062601 | 15 | 147 | 1.6 | 4.8 | 0.00 | 0.00 | 0.00 | 73 | 1010.8 |
| 20260505061053 | 15 | 149 | 1.6 | 6.4 | 0.00 | 0.00 | 0.00 | 73 | 1010.8 |
| 20260505060555 | 15 | 149 | 1.6 | 6.4 | 0.00 | 0.00 | 0.00 | 71 | 1010.9 |
| 20260505060054 | 15 | 203 | 0.0 | 3.2 | 0.00 | 0.00 | 0.00 | 72 | 1011.0 |
| 20260505055550 | 15 | 215 | 0.0 | 4.8 | 0.00 | 0.00 | 0.00 | 71 | 1011.0 |
| 20260505055048 | 15 | 204 | 1.6 | 8.0 | 0.00 | 0.00 | 0.00 | 71 | 1010.9 |
| 20260505054548 | 15 | 183 | 1.6 | 8.0 | 0.00 | 0.00 | 0.00 | 71 | 1010.9 |
| 20260505054048 | 15 | 187 | 1.6 | 4.8 | 0.00 | 0.00 | 0.00 | 71 | 1010.9 |
| 20260505053545 | 15 | 180 | 1.6 | 6.4 | 0.00 | 0.00 | 0.00 | 70 | 1010.8 |
| 20260505053046 | 15 | 150 | 1.6 | 6.4 | 0.00 | 0.00 | 0.00 | 71 | 1010.9 |
| 20260505052546 | 15 | 178 | 1.6 | 6.4 | 0.00 | 0.00 | 0.00 | 70 | 1010.8 |
| 20260505052046 | 15 | 190 | 1.6 | 6.4 | 0.00 | 0.00 | 0.00 | 70 | 1010.7 |
| 20260505051049 | 15 | 174 | 3.2 | 8.0 | 0.00 | 0.00 | 0.00 | 69 | 1010.7 |
| 20260505050549 | 15 | 61 | 1.6 | 8.0 | 0.00 | 0.00 | 0.00 | 69 | 1010.8 |
| 20260505041540 | 15 | 204 | 3.2 | 8.0 | 0.00 | 0.00 | 0.00 | 67 | 1010.6 |
| 20260505041038 | 15 | 188 | 3.2 | 8.0 | 0.00 | 0.00 | 0.00 | 67 | 1010.4 |
| 20260505040536 | 15 | 225 | 3.2 | 11.3 | 0.00 | 0.00 | 0.00 | 67 | 1010.5 |
| 20260505040038 | 15 | 160 | 3.2 | 11.3 | 0.00 | 0.00 | 0.00 | 67 | 1010.5 |
| 20260505035025 | 15 | 160 | 3.2 | 6.4 | 0.00 | 0.00 | 0.00 | 67 | 1010.5 |
| 20260505034522 | 15 | 194 | 1.6 | 6.4 | 0.00 | 0.00 | 0.00 | 67 | 1010.4 |
| 20260505033023 | 15 | 208 | 1.6 | 8.0 | 0.00 | 0.00 | 0.00 | 67 | 1010.4 |
| 20260505032518 | 15 | 195 | 1.6 | 8.0 | 0.00 | 0.00 | 0.00 | 67 | 1010.3 |
| 20260505032016 | 15 | 167 | 1.6 | 4.8 | 0.00 | 0.00 | 0.00 | 67 | 1010.3 |
| 20260505031516 | 15 | 166 | 1.6 | 6.4 | 0.00 | 0.00 | 0.00 | 66 | 1010.3 |
| 20260505031015 | 15 | 176 | 1.6 | 6.4 | 0.00 | 0.00 | 0.00 | 66 | 1010.4 |
| 20260505030015 | 15 | 183 | 1.6 | 6.4 | 0.00 | 0.00 | 0.00 | 66 | 1010.4 |
| 20260505025514 | 15 | 202 | 3.2 | 9.7 | 0.00 | 0.00 | 0.00 | 66 | 1010.4 |
| 20260505025010 | 15 | 218 | 1.6 | 9.7 | 0.00 | 0.00 | 0.00 | 66 | 1010.6 |
| 20260505024009 | 15 | 202 | 1.6 | 6.4 | 0.00 | 0.00 | 0.00 | 66 | 1010.6 |
| 20260505023509 | 15 | 215 | 1.6 | 6.4 | 0.00 | 0.00 | 0.00 | 66 | 1010.6 |
| 20260505023009 | 15 | 218 | 1.6 | 9.7 | 0.00 | 0.00 | 0.00 | 66 | 1010.5 |
| 20260505022508 | 15 | 200 | 1.6 | 9.7 | 0.00 | 0.00 | 0.00 | 66 | 1010.5 |
| 20260505022009 | 15 | 121 | 1.6 | 4.8 | 0.00 | 0.00 | 0.00 | 66 | 1010.4 |
| 20260505021510 | 15 | 111 | 1.6 | 4.8 | 0.00 | 0.00 | 0.00 | 66 | 1010.5 |
| 20260505021008 | 15 | 111 | 1.6 | 4.8 | 0.00 | 0.00 | 0.00 | 66 | 1010.5 |
| 20260505020517 | 15 | 111 | 1.6 | 4.8 | 0.00 | 0.00 | 0.00 | 67 | 1010.4 |
| 20260505020005 | 15 | 69 | 1.6 | 4.8 | 0.00 | 0.00 | 0.00 | 66 | 1010.5 |
| 20260505015506 | 15 | 345 | 1.6 | 4.8 | 0.00 | 0.00 | 0.00 | 66 | 1010.4 |
| 20260505015005 | 15 | 90 | 1.6 | 3.2 | 0.00 | 0.00 | 0.00 | 65 | 1010.5 |
| 20260505014504 | 15 | 81 | 1.6 | 3.2 | 0.00 | 0.00 | 0.00 | 64 | 1010.6 |
| 20260505014000 | 15 | 81 | 1.6 | 3.2 | 0.00 | 0.00 | 0.00 | 64 | 1010.5 |
| 20260505013459 | 16 | 75 | 1.6 | 3.2 | 0.00 | 0.00 | 0.00 | 63 | 1010.5 |
| 20260505013001 | 16 | 68 | 1.6 | 4.8 | 0.00 | 0.00 | 0.00 | 63 | 1010.5 |
| 20260505012502 | 16 | 138 | 1.6 | 8.0 | 0.00 | 0.00 | 0.00 | 62 | 1010.4 |
| 20260505012003 | 16 | 138 | 3.2 | 8.0 | 0.00 | 0.00 | 0.00 | 62 | 1010.4 |
| 20260505011459 | 16 | 133 | 3.2 | 8.0 | 0.00 | 0.00 | 0.00 | 62 | 1010.3 |
| 20260505010450 | 16 | 345 | 3.2 | 12.9 | 0.00 | 0.00 | 0.00 | 61 | 1010.1 |
| 20260505005948 | 17 | 345 | 4.8 | 14.5 | 0.00 | 0.00 | 0.00 | 60 | 1010.0 |
| 20260505005448 | 17 | 345 | 3.2 | 14.5 | 0.00 | 0.00 | 0.00 | 59 | 1009.9 |
| 20260505004950 | 17 | 345 | 3.2 | 8.0 | 0.00 | 0.00 | 0.00 | 59 | 1009.9 |
| 20260505003948 | 17 | 345 | 4.8 | 17.7 | 0.00 | 0.00 | 0.00 | 59 | 1009.9 |
| 20260505002950 | 17 | 345 | 6.4 | 11.3 | 0.00 | 0.00 | 0.00 | 59 | 1009.9 |
| 20260505002452 | 17 | 152 | 4.8 | 11.3 | 0.00 | 0.00 | 0.00 | 58 | 1009.9 |
| 20260505001947 | 17 | 129 | 6.4 | 11.3 | 0.00 | 0.00 | 0.00 | 58 | 1009.9 |
| 20260505001446 | 17 | 56 | 6.4 | 11.3 | 0.00 | 0.00 | 0.00 | 57 | 1009.9 |
| 20260505000948 | 18 | 148 | 6.4 | 22.5 | 0.00 | 0.00 | 0.00 | 56 | 1009.9 |
| 20260505000447 | 18 | 121 | 6.4 | 22.5 | 0.00 | 0.00 | 0.00 | 56 | 1009.9 |
| 20260504235947 | 18 | 125 | 6.4 | 14.5 | 0.00 | 0.00 | 0.00 | 56 | 1009.9 |
| 20260504235441 | 18 | 140 | 8.0 | 16.1 | 0.00 | 0.00 | 0.00 | 55 | 1009.9 |
| 20260504234938 | 18 | 147 | 8.0 | 16.1 | 0.00 | 0.00 | 0.00 | 54 | 1009.8 |
| 20260504234439 | 19 | 129 | 8.0 | 14.5 | 0.00 | 0.00 | 0.00 | 53 | 1009.8 |
| 20260504233937 | 19 | 118 | 8.0 | 16.1 | 0.00 | 0.00 | 0.00 | 52 | 1009.8 |
| 20260504233438 | 20 | 204 | 6.4 | 16.1 | 0.00 | 0.00 | 0.00 | 51 | 1009.9 |
| 20260504232436 | 20 | 128 | 4.8 | 14.5 | 0.00 | 0.00 | 0.00 | 48 | 1009.7 |
| 20260504231936 | 20 | 150 | 4.8 | 19.3 | 0.00 | 0.00 | 0.00 | 48 | 1009.7 |
| 20260504231436 | 20 | 175 | 6.4 | 19.3 | 0.00 | 0.00 | 0.00 | 48 | 1009.8 |
| 20260504230938 | 20 | 145 | 4.8 | 14.5 | 0.00 | 0.00 | 0.00 | 47 | 1009.7 |
| 20260504230436 | 20 | 269 | 3.2 | 14.5 | 0.00 | 0.00 | 0.00 | 48 | 1009.8 |
| 20260504225936 | 21 | 129 | 4.8 | 16.1 | 0.00 | 0.00 | 0.00 | 47 | 1009.8 |
| 20260504225438 | 21 | 131 | 4.8 | 16.1 | 0.00 | 0.00 | 0.00 | 48 | 1009.8 |
| 20260504224437 | 21 | 196 | 4.8 | 12.9 | 0.00 | 0.00 | 0.00 | 47 | 1009.8 |
| 20260504223933 | 21 | 151 | 4.8 | 12.9 | 0.00 | 0.00 | 0.00 | 48 | 1009.8 |
| 20260504223431 | 21 | 129 | 4.8 | 12.9 | 0.00 | 0.00 | 0.00 | 47 | 1009.9 |
| 20260504222930 | 21 | 166 | 4.8 | 17.7 | 0.00 | 0.00 | 0.00 | 46 | 1009.9 |
| 20260504221430 | 21 | 225 | 6.4 | 17.7 | 0.00 | 0.00 | 0.00 | 46 | 1009.8 |
| 20260504220933 | 21 | 345 | 6.4 | 19.3 | 0.00 | 0.00 | 0.00 | 46 | 1009.8 |
| 20260504220434 | 21 | 345 | 4.8 | 19.3 | 0.00 | 0.00 | 0.00 | 47 | 1009.8 |
| 20260504215937 | 21 | 345 | 4.8 | 11.3 | 0.00 | 0.00 | 0.00 | 46 | 1009.7 |
| 20260504215434 | 22 | 345 | 6.4 | 16.1 | 0.00 | 0.00 | 0.00 | 46 | 1009.8 |
| 20260504214430 | 22 | 345 | 6.4 | 24.1 | 0.00 | 0.00 | 0.00 | 44 | 1009.9 |
| 20260504213940 | 22 | 345 | 6.4 | 17.7 | 0.00 | 0.00 | 0.00 | 46 | 1009.9 |
| 20260504213430 | 22 | 345 | 6.4 | 20.9 | 0.00 | 0.00 | 0.00 | 46 | 1009.9 |
| 20260504212931 | 22 | 345 | 6.4 | 20.9 | 0.00 | 0.00 | 0.00 | 46 | 1009.9 |
| 20260504212425 | 22 | 345 | 6.4 | 17.7 | 0.00 | 0.00 | 0.00 | 46 | 1009.9 |
| 20260504211924 | 22 | 345 | 6.4 | 17.7 | 0.00 | 0.00 | 0.00 | 44 | 1009.9 |
| 20260504211422 | 22 | 345 | 4.8 | 17.7 | 0.00 | 0.00 | 0.00 | 46 | 1009.9 |
| 20260504210940 | 22 | 345 | 6.4 | 17.7 | 0.00 | 0.00 | 0.00 | 46 | 1009.9 |
| 20260504210422 | 22 | 345 | 6.4 | 17.7 | 0.00 | 0.00 | 0.00 | 47 | 1009.8 |
| 20260504205922 | 22 | 345 | 6.4 | 17.7 | 0.00 | 0.00 | 0.00 | 49 | 1009.8 |
| 20260504205422 | 22 | 318 | 6.4 | 17.7 | 0.00 | 0.00 | 0.00 | 46 | 1009.8 |
| 20260504204922 | 22 | 345 | 6.4 | 17.7 | 0.00 | 0.00 | 0.00 | 45 | 1009.9 |
| 20260504204422 | 22 | 345 | 8.0 | 29.0 | 0.00 | 0.00 | 0.00 | 44 | 1010.0 |
| 20260504203920 | 22 | 345 | 8.0 | 29.0 | 0.00 | 0.00 | 0.00 | 45 | 1010.0 |
| 20260504203421 | 22 | 345 | 4.8 | 20.9 | 0.00 | 0.00 | 0.00 | 47 | 1010.0 |
| 20260504202921 | 22 | 345 | 4.8 | 17.7 | 0.00 | 0.00 | 0.00 | 46 | 1010.2 |
| 20260504202420 | 22 | 345 | 6.4 | 17.7 | 0.00 | 0.00 | 0.00 | 46 | 1010.1 |
| 20260504201919 | 22 | 345 | 4.8 | 16.1 | 0.00 | 0.00 | 0.00 | 47 | 1010.3 |
| 20260504201419 | 22 | 345 | 4.8 | 16.1 | 0.00 | 0.00 | 0.00 | 48 | 1010.3 |
| 20260504200917 | 22 | 243 | 6.4 | 19.3 | 0.00 | 0.00 | 0.00 | 47 | 1010.4 |
| 20260504200411 | 22 | 345 | 6.4 | 19.3 | 0.00 | 0.00 | 0.00 | 45 | 1010.4 |
| 20260504195905 | 22 | 345 | 4.8 | 12.9 | 0.00 | 0.00 | 0.00 | 46 | 1010.4 |
| 20260504195355 | 21 | 345 | 4.8 | 16.1 | 0.00 | 0.00 | 0.00 | 49 | 1010.6 |
| 20260504194849 | 21 | 183 | 8.0 | 20.9 | 0.00 | 0.00 | 0.00 | 46 | 1010.6 |
| 20260504194349 | 21 | 195 | 8.0 | 20.9 | 0.00 | 0.00 | 0.00 | 44 | 1010.7 |
| 20260504193847 | 21 | 279 | 6.4 | 16.1 | 0.00 | 0.00 | 0.00 | 46 | 1010.8 |
| 20260504193346 | 21 | 238 | 6.4 | 16.1 | 0.00 | 0.00 | 0.00 | 46 | 1010.8 |
| 20260504192844 | 21 | 190 | 6.4 | 16.1 | 0.00 | 0.00 | 0.00 | 45 | 1011.1 |
| 20260504192346 | 21 | 202 | 8.0 | 25.7 | 0.00 | 0.00 | 0.00 | 48 | 1011.2 |
| 20260504191846 | 21 | 163 | 8.0 | 25.7 | 0.00 | 0.00 | 0.00 | 46 | 1011.1 |
| 20260504191344 | 21 | 233 | 6.4 | 22.5 | 0.00 | 0.00 | 0.00 | 47 | 1011.3 |
| 20260504190347 | 21 | 327 | 6.4 | 16.1 | 0.00 | 0.00 | 0.00 | 47 | 1011.5 |
| 20260504185844 | 21 | 259 | 4.8 | 14.5 | 0.00 | 0.00 | 0.00 | 50 | 1011.5 |
| 20260504185347 | 21 | 333 | 4.8 | 16.1 | 0.00 | 0.00 | 0.00 | 48 | 1011.6 |
| 20260504184849 | 21 | 181 | 8.0 | 22.5 | 0.00 | 0.00 | 0.00 | 45 | 1011.7 |
| 20260504184347 | 21 | 175 | 8.0 | 22.5 | 0.00 | 0.00 | 0.00 | 47 | 1011.7 |
| 20260504183848 | 21 | 345 | 9.7 | 20.9 | 0.00 | 0.00 | 0.00 | 45 | 1011.8 |
| 20260504183340 | 21 | 345 | 8.0 | 20.9 | 0.00 | 0.00 | 0.00 | 46 | 1011.8 |
| 20260504181830 | 21 | 222 | 8.0 | 22.5 | 0.00 | 0.00 | 0.00 | 49 | 1012.0 |
| 20260504181331 | 21 | 131 | 9.7 | 22.5 | 0.00 | 0.00 | 0.00 | 51 | 1012.0 |
| 20260504180831 | 21 | 262 | 8.0 | 19.3 | 0.00 | 0.00 | 0.00 | 47 | 1012.0 |
| 20260504180333 | 21 | 345 | 8.0 | 19.3 | 0.00 | 0.00 | 0.00 | 44 | 1012.0 |
| 20260504175839 | 20 | 345 | 8.0 | 30.6 | 0.00 | 0.00 | 0.00 | 46 | 1012.2 |
| 20260504175338 | 21 | 188 | 8.0 | 30.6 | 0.00 | 0.00 | 0.00 | 46 | 1012.0 |
| 20260504174836 | 20 | 345 | 6.4 | 22.5 | 0.00 | 0.00 | 0.00 | 46 | 1012.0 |
| 20260504174338 | 21 | 114 | 6.4 | 22.5 | 0.00 | 0.00 | 0.00 | 46 | 1012.2 |
| 20260504173330 | 21 | 258 | 6.4 | 17.7 | 0.00 | 0.00 | 0.00 | 45 | 1012.4 |
| 20260504172331 | 20 | 181 | 6.4 | 16.1 | 0.00 | 0.00 | 0.00 | 45 | 1012.4 |
| 20260504171329 | 20 | 230 | 6.4 | 16.1 | 0.00 | 0.00 | 0.00 | 50 | 1012.7 |
| 20260504170830 | 20 | 345 | 8.0 | 22.5 | 0.00 | 0.00 | 0.00 | 49 | 1012.7 |
| 20260504160321 | 19 | 301 | 4.8 | 17.7 | 0.00 | 0.00 | 0.00 | 47 | 1013.5 |
| 20260504150819 | 18 | 158 | 4.8 | 14.5 | 0.00 | 0.00 | 0.00 | 47 | 1014.0 |
| 20260504150319 | 18 | 96 | 4.8 | 12.9 | 0.00 | 0.00 | 0.00 | 49 | 1014.0 |
| 20260504141314 | 16 | 262 | 4.8 | 14.5 | 0.00 | 0.00 | 0.00 | 55 | 1014.4 |
| 20260504140813 | 16 | 215 | 4.8 | 14.5 | 0.00 | 0.00 | 0.00 | 52 | 1014.3 |
| 20260504140314 | 16 | 203 | 4.8 | 14.5 | 0.00 | 0.00 | 0.00 | 53 | 1014.3 |
| 20260504130812 | 12 | 345 | 4.8 | 14.5 | 0.00 | 0.00 | 0.00 | 65 | 1014.6 |
| 20260504120314 | 8 | 133 | 3.2 | 6.4 | 0.00 | 0.00 | 0.00 | 72 | 1014.9 |